Theta_e
315 312 309 308 306 306 305 304 304 304 304 306 307 308 308 308 309 310 311 314 318 324 326 325 324 323 322 321 319 319 317 316 315 316 316 317 317 317 317 317 318 317 317
310 309 308 309 307 306 304 304 304 304 304 305 305 306 306 305 306 307 308 310 313 316 320 322 321 321 321 321 320 318 318 316 316 316 316 316 316 316 316 316 316 316 316
310 309 308 307 306 306 305 303 304 304 304 304 303 303 303 302 302 303 306 305 308 310 312 315 315 316 318 320 319 318 316 316 315 315 315 315 315 316 315 315 315 315 315
309 307 306 305 306 306 305 304 303 303 302 300 299 299 299 300 299 299 298 298 298 301 304 309 308 312 314 317 318 318 316 315 314 315 315 315 315 315 315 314 315 315 315
309 307 306 305 306 305 304 302 302 303 300 299 299 298 298 297 297 298 296 297 297 297 296 302 303 304 308 313 316 317 316 315 314 314 314 313 314 314 314 314 314 314 313
307 305 304 303 304 302 302 302 302 303 300 298 300 298 297 297 297 295 295 296 296 296 296 296 295 298 303 308 311 314 316 314 313 312 313 313 313 313 313 313 313 313 312
306 305 303 302 301 300 300 300 301 301 299 300 299 298 296 296 295 295 295 294 294 295 295 295 294 294 296 302 307 310 313 313 312 311 311 312 311 312 312 312 312 312 310
305 304 301 300 299 298 298 299 300 299 300 301 299 298 293 293 294 295 294 294 293 294 294 294 294 294 293 294 300 304 307 309 310 310 310 310 310 311 311 311 311 309 309
305 304 302 302 300 299 298 298 300 299 298 300 300 299 295 292 291 293 292 292 293 292 292 293 293 294 293 294 297 299 302 304 306 307 307 308 308 309 309 309 308 308 308
304 304 303 301 299 299 298 297 299 298 300 297 299 300 298 296 292 288 291 291 292 292 291 292 292 293 293 293 297 298 299 300 301 303 304 305 306 307 308 307 307 307 307
302 301 300 299 298 298 298 298 297 298 299 299 298 296 295 294 294 292 287 287 290 291 291 291 291 291 292 292 294 296 299 299 299 299 300 302 303 304 305 306 306 306 306
300 300 299 299 298 297 296 296 296 297 297 297 297 296 295 293 292 291 289 287 287 288 292 291 291 290 290 289 294 295 297 297 298 299 299 299 300 301 303 304 304 304 304
300 300 299 298 298 298 297 296 296 296 296 295 296 296 296 295 295 294 292 288 286 283 290 293 293 291 292 292 292 293 294 296 297 297 297 298 299 299 300 301 301 302 302
301 302 300 299 298 298 297 296 296 296 296 296 295 296 296 296 295 294 292 289 282 288 288 289 292 292 292 291 291 292 292 293 295 295 296 296 297 298 298 299 299 299 299
299 301 301 300 298 297 297 296 295 294 294 295 296 296 295 295 295 294 293 293 290 285 285 288 289 292 290 290 290 291 290 291 292 293 294 294 295 296 296 297 297 298 298
293 295 298 300 299 297 296 295 294 294 293 293 294 295 295 295 295 295 293 292 292 289 283 288 290 290 290 289 289 289 289 289 289 291 292 293 293 294 294 295 295 296 296
290 291 294 295 297 297 295 294 294 293 292 292 293 293 294 295 294 293 293 292 291 290 285 287 290 289 287 286 287 288 288 285 283 289 290 291 292 292 292 293 293 294 294
286 288 290 293 295 296 296 294 293 293 292 291 293 292 293 294 293 294 292 290 290 290 286 286 285 285 285 285 285 282 283 283 279 287 289 289 290 291 291 291 291 292 292
284 285 287 287 288 289 291 294 294 292 292 292 292 292 293 293 291 291 290 289 289 290 287 285 285 285 285 285 284 281 282 280 283 284 286 287 287 289 290 289 290 290 290
279 282 284 285 285 286 288 287 290 291 290 290 292 292 293 293 292 292 291 288 289 284 285 285 285 284 284 285 284 282 282 284 284 284 283 284 286 285 287 288 288 288 289
276 277 283 284 285 287 290 289 289 288 288 288 289 291 292 291 291 292 291 289 287 282 282 286 284 284 283 283 283 284 283 283 282 281 279 275 278 278 280 283 285 287 288
273 274 275 279 283 286 288 290 290 288 287 286 286 288 289 288 290 292 292 292 289 285 284 284 284 283 283 283 284 284 284 282 281 280 284 274 275 274 276 280 287 287 287
273 272 273 276 278 282 287 289 289 287 287 286 285 287 287 288 288 288 290 291 290 291 290 285 284 284 284 284 284 284 284 283 283 280 283 275 275 273 275 279 285 286 286
272 274 274 275 276 280 286 287 288 286 286 286 285 285 286 286 287 287 286 286 286 285 285 285 285 285 284 284 286 285 285 283 282 276 282 277 276 273 275 275 284 285 285
276 274 276 275 275 275 286 287 287 285 285 286 286 283 286 286 288 290 286 285 284 283 288 289 288 288 289 288 287 285 283 282 281 282 278 282 281 275 274 273 274 283 283
276 280 279 276 275 277 284 287 287 285 285 284 285 285 284 287 289 290 286 284 283 282 282 281 281 285 286 286 285 280 280 277 281 280 279 280 281 281 276 272 271 272 275
Wind_Speed
5 3 4 4 3 3 4 5 5 5 5 6 6 6 6 6 7 5 5 18 21 17 15 15 14 13 13 13 13 14 14 14 14 15 16 16 18 19 20 20 21 22 22
5 6 5 4 4 3 3 4 5 5 4 5 7 6 6 6 7 7 5 8 18 20 20 17 16 16 14 13 14 14 14 14 14 15 15 17 18 19 20 20 21 22 23
10 5 5 7 5 4 5 4 5 5 5 5 7 6 6 6 6 7 4 4 6 18 18 18 16 15 14 14 13 13 14 13 14 14 16 17 18 18 19 20 21 21 22
11 10 7 5 4 4 3 1 3 4 4 5 5 5 5 5 6 7 7 5 5 6 10 15 14 14 15 14 14 13 13 13 14 14 16 16 17 18 19 20 21 22 22
8 8 6 7 4 3 1 1 3 4 4 5 5 5 4 4 5 5 6 5 6 4 3 10 12 11 13 15 15 13 13 13 14 14 14 15 17 18 19 20 21 22 23
7 8 7 6 5 2 0 2 3 3 4 4 7 5 4 4 4 4 5 4 5 5 4 4 4 4 10 14 15 14 13 13 14 14 15 15 17 18 19 20 21 21 23
7 9 6 6 4 2 4 3 1 6 2 4 5 3 3 5 4 3 4 3 5 5 5 5 4 3 4 11 15 14 14 14 14 14 15 16 16 18 19 20 21 21 22
7 6 7 5 6 5 5 3 2 3 1 4 2 3 3 1 2 3 3 3 4 3 4 5 5 5 5 4 7 13 14 14 14 15 16 16 17 18 19 20 21 21 22
6 6 6 6 5 4 4 2 2 3 3 3 1 1 2 2 3 1 2 2 2 2 3 4 5 5 6 5 6 7 12 13 14 15 16 17 17 19 19 20 20 21 22
6 4 5 4 4 4 4 3 3 3 2 3 1 1 2 2 2 2 0 1 2 3 3 2 4 5 5 4 6 9 10 11 13 15 16 17 18 18 19 19 20 21 22
4 4 4 4 4 3 3 5 2 2 2 1 2 1 1 1 1 2 3 1 1 0 2 3 3 4 5 4 4 6 10 11 12 13 15 16 17 18 18 19 20 21 22
3 3 3 3 3 3 3 3 3 3 3 3 1 2 2 3 2 2 2 2 3 1 1 1 3 4 4 3 5 9 11 9 11 13 14 15 16 17 18 19 20 21 22
1 3 3 3 3 3 3 3 2 2 1 2 3 1 0 0 1 1 3 1 3 1 1 1 1 3 3 3 3 5 10 10 11 12 13 14 15 17 17 19 20 20 22
3 2 3 4 3 4 3 3 1 0 2 2 4 3 1 1 1 1 2 4 3 1 2 2 1 2 3 3 3 3 5 10 10 11 12 13 14 16 17 18 19 20 21
4 3 2 4 5 5 5 4 3 3 2 1 3 3 1 1 1 1 1 2 4 3 4 2 2 3 4 3 1 2 5 9 9 10 10 12 14 15 16 18 19 21 21
10 8 5 2 4 4 4 4 3 3 3 2 3 2 1 1 1 2 1 1 1 3 3 2 2 3 4 4 1 4 4 6 8 9 9 11 13 15 16 18 19 21 21
7 6 6 5 3 4 4 4 4 4 4 4 4 3 2 3 2 2 1 1 2 2 3 1 2 3 3 4 2 3 3 5 3 9 9 10 12 13 15 17 18 20 21
9 9 9 7 6 3 4 4 4 4 5 5 4 3 3 2 2 3 2 3 3 2 3 4 2 2 3 3 3 4 2 3 3 7 10 10 12 12 14 16 18 19 20
7 9 9 8 8 7 6 2 3 4 4 4 5 4 4 4 4 2 3 3 2 1 2 3 3 2 2 3 3 2 1 2 3 6 7 7 10 11 14 15 16 18 19
3 6 8 8 6 5 5 4 4 3 4 4 4 5 4 4 5 4 4 4 3 3 2 3 3 3 3 2 3 3 3 0 1 1 5 5 7 10 13 14 15 16 18
3 2 6 8 8 6 4 4 4 4 3 4 4 4 4 5 6 5 3 4 5 3 2 3 2 2 3 4 6 3 2 2 1 1 1 2 1 2 4 9 8 16 18
4 3 2 3 6 5 10 10 6 4 3 4 4 5 4 5 4 6 7 9 7 5 4 3 2 4 5 4 6 5 4 3 3 1 2 2 2 2 3 4 13 15 17
3 4 3 2 2 4 11 11 8 3 3 4 5 4 5 4 5 5 6 5 5 5 5 5 5 4 5 7 7 9 6 4 2 1 1 1 1 1 1 3 11 13 16
2 3 3 4 2 2 9 10 9 2 3 4 3 5 5 6 6 6 6 5 4 2 1 2 3 5 5 7 7 5 6 3 3 1 1 1 0 2 1 2 9 12 14
2 2 3 4 3 4 7 9 8 3 3 3 3 3 5 6 10 12 7 7 4 2 3 5 7 7 9 11 7 5 4 4 3 2 1 1 1 1 0 2 3 11 13
3 3 4 3 5 5 7 7 6 3 3 1 3 4 8 6 11 14 8 7 7 4 5 4 3 6 6 8 9 3 4 5 1 1 3 2 1 1 3 2 1 2 3
Wind_Direction
42 47 87 73 72 80 99 105 97 85 81 83 70 63 49 49 83 86 67 53 45 48 73 79 74 68 64 59 57 52 49 41 38 30 32 31 32 31 30 26 22 21 19
47 35 29 60 41 64 89 115 113 104 93 81 73 65 58 46 53 77 77 65 59 52 46 54 55 49 47 48 54 50 47 37 37 34 34 35 34 33 31 27 25 21 17
111 75 44 29 14 43 47 68 86 88 85 87 85 71 60 58 50 53 64 72 75 58 52 45 48 37 33 38 47 49 47 41 39 37 36 36 34 32 31 27 24 19 14
142 136 134 92 33 357 19 354 117 111 108 101 92 82 75 71 69 57 51 41 42 50 50 59 47 32 29 31 40 44 47 45 45 39 37 34 31 30 30 25 21 17 13
131 118 131 121 107 51 252 200 69 104 102 95 87 80 85 81 85 88 87 69 54 67 73 73 69 48 29 27 29 37 46 48 45 40 35 33 30 28 27 24 21 16 15
132 122 119 126 135 163 164 65 109 97 121 126 104 86 78 71 83 96 95 88 85 64 59 64 89 60 50 31 26 29 42 47 44 39 34 32 30 25 24 22 20 16 17
126 120 138 147 130 109 157 191 147 101 94 120 119 86 88 88 84 89 92 96 86 77 63 57 47 41 42 45 22 24 31 40 40 38 35 28 27 24 25 23 20 18 15
135 142 131 131 138 142 151 185 161 113 115 207 158 148 143 64 59 87 83 86 88 95 80 71 56 48 55 46 36 33 27 33 35 35 34 28 25 25 24 23 23 16 17
129 134 136 144 139 122 139 133 131 123 154 251 175 108 116 149 136 186 111 104 93 87 85 87 77 67 76 55 44 25 33 33 33 34 30 27 25 24 24 25 22 20 19
109 122 123 128 135 136 147 151 214 238 185 175 68 108 77 114 149 157 29 143 80 87 81 73 96 68 93 70 50 22 34 36 34 32 31 27 27 27 24 26 24 22 19
78 98 124 132 140 142 168 170 219 282 293 126 140 140 157 82 51 120 156 205 40 44 60 81 99 100 72 69 53 15 28 35 39 33 31 29 29 29 26 26 24 21 19
90 103 107 125 140 143 176 127 120 63 359 12 13 173 169 157 191 164 126 152 153 202 196 111 87 96 101 80 67 30 25 36 37 34 31 30 31 29 27 26 23 22 20
110 139 146 156 166 156 173 175 175 166 26 23 338 303 321 230 110 118 115 132 128 267 204 249 55 94 104 85 96 43 34 27 37 37 34 32 33 31 28 27 24 23 21
46 136 164 170 181 170 175 179 195 43 2 357 300 284 258 234 99 123 137 132 45 184 202 197 173 187 98 100 126 25 55 22 36 36 35 34 34 32 30 27 25 24 21
359 35 223 190 180 188 184 174 196 197 181 300 280 269 244 282 75 23 27 133 154 163 229 165 129 138 112 149 160 105 67 30 40 43 39 40 34 32 30 27 25 25 21
4 1 353 308 197 187 186 183 179 172 189 194 281 266 220 263 127 90 324 288 166 149 137 154 120 137 141 109 119 101 96 70 43 45 45 40 39 32 29 28 24 24 21
1 354 345 340 350 179 180 190 196 178 184 196 223 239 261 227 176 154 172 272 252 167 124 61 103 94 94 131 130 94 98 76 26 48 51 44 43 35 30 27 24 22 19
0 352 350 349 349 340 182 182 198 190 192 192 203 201 222 245 212 195 168 226 245 241 127 133 128 115 106 127 130 91 61 80 33 51 56 46 39 34 31 27 23 20 17
353 359 2 1 349 344 345 333 213 202 200 192 194 195 198 198 229 212 193 193 218 211 123 132 133 124 106 145 110 130 116 97 57 47 49 36 37 27 31 25 22 18 16
347 0 1 355 346 337 326 318 308 245 217 206 199 195 196 203 210 203 214 190 178 139 137 125 126 136 127 132 154 162 183 146 117 164 45 28 36 22 21 24 17 15 15
330 311 12 8 3 358 4 347 301 279 242 232 221 210 203 218 224 211 175 194 165 157 154 142 133 139 145 162 197 160 156 166 207 183 109 330 16 357 355 352 6 16 17
320 358 31 358 11 4 358 345 335 304 264 231 230 211 212 210 221 217 191 182 181 174 194 153 155 183 181 176 195 192 175 159 217 125 190 297 98 339 330 337 17 18 16
326 329 336 7 5 342 359 347 342 307 273 238 229 216 198 189 192 192 209 184 185 200 205 169 180 192 188 186 187 193 195 191 141 173 209 247 54 315 289 327 8 13 15
289 302 309 317 318 329 352 355 346 300 244 238 225 217 209 191 189 182 177 180 193 186 232 116 159 181 175 166 185 176 184 108 76 8 255 209 81 274 313 307 0 7 13
279 278 282 306 313 298 331 353 352 322 270 229 216 228 213 196 195 187 179 165 152 104 106 118 119 130 143 150 154 138 153 148 195 163 264 209 170 299 319 297 317 14 17
256 275 291 276 280 284 318 340 3 332 311 257 209 221 234 211 199 186 177 162 160 153 122 79 68 92 93 110 91 108 149 154 180 120 223 142 128 237 329 283 301 326 346